Regional Weather Roundup
Issued by NWS

Home | Current Version | Previous Version | Graphics & Text | Print | Product List | Glossary On
Versions: 1 2 3 4 5 6 7 8 9 10 11 12 13 14 15 16 17 18 19 20 21 22 23 24 25 26 27 28 29 30 31 32 33 34 35 36 37 38 39 40 41 42 43 44 45 46 47 48 49 50
000
ASUS44 KMEG 100400
RWRTN
TENNESSEE HOURLY STATE WEATHER ROUNDUP
NATIONAL WEATHER SERVICE MEMPHIS TN
1000 PM CST TUE FEB 09 2016

TNZ002-004-019-021-049-052-054-088>092-100500-
WEST TENNESSEE

CITY           SKY/WX    TMP DP  RH WIND       PRES   REMARKS
MEMPHIS INTL   CLEAR     28  13  53 NW3       30.16R
NWS MEMPHIS      N/A    N/A N/A N/A MISG        N/A
JACKSON        CLEAR     23  14  68 NW6       30.14S WCI  16
DYERSBURG      CLEAR     23  12  63 CALM      30.17S
UNION CITY     CLEAR     21  12  68 W6        30.12S WCI  14
PARIS          CLOUDY    19  14  79 SW5       30.11S WCI  13
$$

TNZ008-025-027-028-033-062-065-066-100500-
NORTH MIDDLE TENNESSEE

CITY           SKY/WX    TMP DP  RH WIND       PRES   REMARKS
NASHVILLE      FLURRIES  22  11  62 NW9       30.11R WCI  12
CLARKSVILLE    LGT SNOW  21  16  81 W6        30.10S WCI  13
COOKEVILLE     CLOUDY    21  16  79 NW7       30.04R WCI  13
CROSSVILLE     CLOUDY    18  11  74 W8        29.95S WCI   8
$$

TNZ061-075-076-078-094-096-097-100500-
SOUTH MIDDLE TENNESSEE

CITY           SKY/WX    TMP DP  RH WIND       PRES   REMARKS
TULLAHOMA      CLOUDY    19  16  86 NW12      30.07R WCI   7
WINCHESTER     CLOUDY    21  16  79 NW8       30.07R WCI  12
MCMINNVILLE    CLOUDY    19  14  79 NW8       30.06R WCI   9
COLUMBIA       CLOUDY    23  19  86 NW6       30.09S WCI  16
SHELBYVILLE    CLOUDY    23  18  80 W12       30.11R WCI  12
$$

TNZ017-018-042-046-047-100500-
NORTHEAST TENNESSEE

CITY           SKY/WX    TMP DP  RH WIND       PRES   REMARKS
TRI CITIES     FLURRIES  22  15  75 SW8       29.90R WCI  12
$$

TNZ012-013-036-069-073-074-100500-
CENTRAL EAST TENNESSEE

CITY           SKY/WX    TMP DP  RH WIND       PRES   REMARKS
KNOXVILLE      FLURRIES  24  12  60 W13       29.99R WCI  12
OAK RIDGE      CLOUDY    25  11  55 W7        30.01R WCI  17
GATLINBURG     CLOUDY    23  16  74 W14       29.96R WCI  11
$$

TNZ083-085-099-100500-
SOUTHEAST TENNESSEE

CITY           SKY/WX    TMP DP  RH WIND       PRES   REMARKS
CHATTANOOGA    FLURRIES  26  15  63 NW8       30.06R WCI  18
$$

SKY/WX REPORTED AS FAIR MEANS FEW OR NO CLOUDS BELOW
12 THOUSAND FEET.




USA.gov is the U.S. government's official web portal to all federal, state and local government web resources and services.